Total_Precipitation_Accumulation
1.95 1.95 1.90 1.87 1.80 1.89 2.05 2.22 2.26 2.60 2.70 2.33 1.95 1.84 1.82 1.89 1.78 1.78 1.71 1.64 1.57 1.69 2.04 2.25 2.11 1.88 1.59 1.37 1.24 1.13 1.01 0.88 0.80 0.69 0.71 0.79 0.79 0.73 0.66 0.60 0.53 0.46 0.41
2.06 2.17 2.05 2.02 1.90 1.86 2.02 2.19 2.36 2.82 2.84 2.66 2.22 2.00 1.92 1.88 1.72 1.65 1.73 1.92 1.75 1.64 1.75 2.01 2.20 2.16 2.01 1.76 1.50 1.31 1.17 1.08 0.93 0.71 0.60 0.67 0.71 0.70 0.68 0.67 0.61 0.50 0.42
2.04 2.06 1.91 1.83 1.86 2.00 2.15 2.20 2.35 2.65 2.41 2.39 2.18 2.03 1.84 1.65 1.50 1.44 1.60 1.78 1.67 1.61 1.72 1.84 2.01 2.09 2.18 2.17 2.01 1.81 1.49 1.29 1.11 0.87 0.69 0.64 0.67 0.64 0.62 0.64 0.63 0.56 0.45
1.95 2.09 1.91 1.76 2.05 2.12 2.20 2.41 2.54 2.56 2.52 2.52 2.29 1.98 1.75 1.63 1.33 1.23 1.25 1.33 1.51 1.33 1.57 1.78 1.82 1.87 2.08 2.32 2.48 2.49 2.13 1.73 1.43 1.19 0.96 0.82 0.81 0.75 0.64 0.60 0.62 0.55 0.41
2.01 2.26 2.23 2.28 2.38 2.41 2.40 2.29 2.59 2.60 2.51 2.51 2.23 1.96 1.60 1.41 1.22 1.08 1.01 0.95 1.08 1.16 1.23 1.39 1.51 1.59 1.94 2.46 2.75 2.87 2.77 2.38 1.86 1.57 1.43 1.26 1.18 0.98 0.75 0.65 0.65 0.62 0.49
2.12 2.45 2.31 2.27 2.35 2.47 2.48 2.43 2.44 2.47 2.27 2.24 2.09 1.84 1.46 1.12 1.03 0.94 0.81 0.78 0.82 0.76 0.90 1.10 1.32 1.20 1.53 2.04 2.39 2.73 2.99 2.84 2.32 1.98 1.86 1.74 1.64 1.39 0.96 0.75 0.71 0.69 0.64
2.09 2.38 2.28 2.37 2.32 2.31 2.32 2.34 2.37 2.25 1.92 2.11 2.20 1.79 1.33 1.01 0.97 0.75 0.68 0.69 0.69 0.66 0.81 1.06 1.21 1.21 1.17 1.28 1.58 1.96 2.48 2.72 2.52 2.20 2.06 1.94 1.97 1.81 1.30 0.99 0.86 0.73 0.74
2.22 2.20 2.26 2.23 2.26 2.35 2.25 2.20 2.27 2.09 1.75 1.87 2.03 2.11 1.58 1.24 0.95 0.66 0.70 0.77 0.82 0.86 0.86 0.93 1.06 1.21 1.22 1.45 1.33 1.29 1.73 2.31 2.65 2.58 2.31 1.94 1.78 1.70 1.50 1.36 1.16 0.96 0.93
2.36 2.31 2.25 2.13 2.07 1.95 1.92 1.97 2.01 1.99 1.83 1.73 1.90 2.17 1.82 1.40 1.17 0.83 0.75 0.79 0.93 1.08 1.04 1.01 1.02 1.18 1.29 1.57 1.71 1.48 1.32 1.61 2.22 2.78 2.78 2.28 1.78 1.54 1.48 1.49 1.46 1.28 1.17
2.18 1.95 1.81 1.84 1.83 1.76 1.73 1.55 1.61 1.69 1.62 1.50 1.62 1.72 1.77 1.79 1.71 1.18 0.84 0.77 0.90 1.03 1.11 1.00 0.93 1.05 1.23 1.44 1.70 1.62 1.26 1.16 1.45 2.19 2.66 2.54 2.13 1.69 1.50 1.54 1.79 1.76 1.44
1.87 1.59 1.49 1.56 1.57 1.51 1.42 1.36 1.44 1.35 1.28 1.27 1.42 1.59 1.68 1.74 1.72 1.62 1.26 1.13 1.09 0.96 0.96 0.95 1.01 1.03 1.08 1.35 1.63 1.49 1.43 1.30 1.23 1.38 1.74 2.04 2.15 1.96 1.83 1.98 2.30 2.44 2.17
1.53 1.31 1.21 1.32 1.40 1.41 1.37 1.31 1.34 1.24 1.24 1.36 1.36 1.43 1.59 1.56 1.58 1.68 1.45 1.33 1.22 0.99 0.98 1.06 1.05 1.11 1.11 1.25 1.26 1.41 1.39 1.19 1.07 1.04 1.13 1.38 1.63 1.75 1.83 2.03 2.44 2.79 2.86
1.27 1.20 1.21 1.26 1.30 1.36 1.28 1.27 1.24 1.27 1.38 1.44 1.39 1.36 1.45 1.46 1.50 1.64 1.62 1.47 1.37 1.21 1.23 1.22 1.06 0.99 0.90 1.00 1.11 1.16 1.03 0.93 0.84 0.80 0.82 0.91 1.05 1.28 1.51 1.76 2.14 2.53 2.79
1.29 1.34 1.31 1.23 1.20 1.24 1.16 1.29 1.24 1.26 1.37 1.41 1.26 1.43 1.46 1.45 1.60 1.75 1.81 1.81 1.65 1.45 1.39 1.34 1.20 1.04 0.99 0.99 1.02 1.01 0.89 0.80 0.64 0.61 0.62 0.64 0.72 0.86 1.08 1.28 1.53 1.82 2.06
1.35 1.47 1.44 1.38 1.30 1.31 1.37 1.51 1.48 1.51 1.65 1.62 1.59 1.72 1.65 1.53 1.58 1.63 1.73 1.82 1.92 1.72 1.49 1.40 1.28 1.09 1.05 1.09 1.04 0.95 1.01 0.87 0.66 0.56 0.51 0.49 0.55 0.66 0.72 0.80 0.96 1.14 1.34
1.25 1.41 1.47 1.44 1.39 1.40 1.50 1.63 1.66 1.79 1.88 1.85 1.87 1.94 1.88 1.73 1.73 1.77 1.76 1.86 2.00 1.90 1.61 1.34 1.26 1.13 1.11 1.00 1.05 0.99 0.98 0.89 0.75 0.63 0.52 0.48 0.49 0.53 0.54 0.58 0.67 0.77 0.91
1.24 1.29 1.38 1.45 1.42 1.43 1.52 1.59 1.58 1.80 1.90 1.88 1.84 1.83 1.77 1.78 1.75 1.69 1.77 1.90 2.04 2.05 1.75 1.42 1.44 1.45 1.42 1.31 1.27 1.17 1.05 0.98 0.82 0.72 0.61 0.56 0.52 0.52 0.53 0.54 0.56 0.60 0.66
1.30 1.33 1.41 1.43 1.32 1.30 1.43 1.48 1.52 1.66 1.74 1.73 1.68 1.69 1.55 1.56 1.60 1.54 1.64 1.71 1.81 2.00 1.95 1.74 1.76 1.78 1.74 1.61 1.55 1.48 1.31 1.08 0.87 0.82 0.68 0.62 0.58 0.54 0.50 0.51 0.54 0.60 0.64
1.30 1.31 1.32 1.34 1.37 1.47 1.54 1.53 1.50 1.47 1.48 1.53 1.67 1.75 1.59 1.57 1.52 1.52 1.53 1.51 1.58 1.72 1.84 1.81 1.81 1.88 1.84 1.78 1.66 1.49 1.37 1.22 0.96 0.86 0.79 0.69 0.62 0.57 0.55 0.54 0.55 0.60 0.66
1.23 1.26 1.28 1.29 1.35 1.47 1.50 1.53 1.56 1.49 1.41 1.40 1.47 1.53 1.52 1.52 1.49 1.56 1.52 1.50 1.51 1.60 1.70 1.73 1.76 1.89 1.89 1.80 1.79 1.61 1.58 1.44 1.27 1.04 0.94 0.83 0.81 0.78 0.73 0.65 0.58 0.58 0.67
1.25 1.32 1.36 1.36 1.31 1.34 1.28 1.28 1.29 1.27 1.31 1.26 1.19 1.20 1.23 1.32 1.32 1.31 1.24 1.36 1.48 1.52 1.55 1.58 1.62 1.79 1.98 2.03 1.86 1.76 1.82 1.78 1.62 1.36 1.25 1.06 0.94 0.87 0.81 0.75 0.69 0.63 0.64
1.25 1.32 1.31 1.37 1.35 1.13 1.20 1.19 1.20 1.32 1.38 1.34 1.27 1.19 1.15 1.13 1.06 1.02 1.00 1.07 1.26 1.38 1.42 1.49 1.52 1.66 1.87 2.07 2.12 2.07 1.97 1.89 1.84 1.69 1.61 1.48 1.27 1.15 1.03 0.91 0.82 0.77 0.73
1.36 1.37 1.33 1.32 1.33 1.36 1.37 1.24 1.10 1.09 1.17 1.20 1.21 1.20 1.05 0.96 1.04 1.00 1.03 1.02 1.03 1.13 1.22 1.34 1.43 1.47 1.61 1.83 2.06 2.01 2.07 2.09 2.06 2.04 2.06 1.97 1.70 1.48 1.27 1.10 0.94 0.75 0.69
1.58 1.57 1.52 1.42 1.45 1.47 1.38 1.18 1.10 1.05 1.10 1.14 1.17 1.21 1.21 1.12 1.10 1.17 1.20 1.16 1.07 1.05 1.08 1.10 1.15 1.27 1.47 1.71 1.99 1.98 1.99 2.05 2.10 2.12 2.16 2.15 1.93 1.76 1.53 1.36 1.20 0.94 0.76
1.66 1.62 1.61 1.65 1.61 1.66 1.64 1.40 1.32 1.23 1.26 1.27 1.28 1.27 1.25 1.17 1.23 1.19 1.17 1.17 1.12 1.07 1.06 1.09 1.07 1.20 1.40 1.51 1.71 1.83 1.83 1.87 1.81 1.75 1.87 2.06 2.05 1.98 1.83 1.59 1.34 1.11 0.87
1.74 1.78 1.78 1.79 1.80 1.87 2.02 1.76 1.55 1.44 1.46 1.43 1.47 1.40 1.33 1.25 1.26 1.20 1.10 1.12 1.11 1.11 1.20 1.18 1.14 1.14 1.20 1.37 1.53 1.63 1.78 1.90 1.80 1.66 1.46 1.55 1.73 1.91 2.04 1.87 1.61 1.39 1.22